[[{"header":{"parameterUnit":"m.s-1","parameterCategory":1,"la1":30.2991,"la2":30.254,"lo1":-89.0895,"lo2":-89.0444,"dy":0.0017,"dx":0.0017,"nx":28,"ny":28,"refTime":"2025-03-03T09:00:00:Z","depth":0,"parameterNumber":2,"parameterNumberName":"U-component_of_WINDS"},"data":[0,0,0,0,0,0,0,0,0,0,0,0,0,0,0,0,0,0,0,0,0,0,0,0,0,0,0,0,0,0,0,0,0,0,0,0,0,0,0,0,0,0,0,0,0,0,0,0,0,0,0,0,0,0,0,0,0,0,-3.9546,-3.9547,0,-3.9607,-3.9607,-3.9608,-3.9475,-3.9471,-3.9467,-3.9463,-3.9528,-3.9533,-3.9539,0,0,0,0,0,0,0,0,0,0,0,0,0,-3.9319,-3.9324,-3.9546,-3.9547,-3.9548,-3.9606,-3.9607,-3.9608,-3.9476,-3.9471,-3.9466,-3.9461,-3.9526,-3.9532,-3.9539,0,0,0,0,0,0,0,0,0,0,0,0,0,-3.9402,-3.9325,-3.9546,-3.9489,-3.9484,-3.9606,-3.9607,-3.9608,-3.9477,-3.9471,-3.9464,-3.9458,-3.9523,-3.9532,-3.954,-3.9722,0,0,-3.9566,-3.957,0,0,0,0,0,0,0,0,-3.9398,-3.9411,-3.9497,-3.9493,-3.9488,-3.9527,-3.9551,-3.9646,-3.9479,-3.948,-3.9463,-3.9455,-3.9533,-3.954,-3.9566,-3.9725,-3.9727,-3.9567,-3.9572,-3.9576,-3.9578,0,0,0,0,0,0,0,-3.9392,-3.9408,-3.957,-3.9498,-3.9493,-3.9461,-3.9466,-3.9568,-3.9542,-3.9479,-3.947,-3.9479,-3.9529,-3.9558,-3.9566,-3.9728,-3.9567,-3.9575,-3.958,-3.9583,-4.0039,-4.0045,0,0,0,0,0,0,-3.9393,-3.9404,-3.9568,-3.9572,-3.9426,-3.947,-3.9475,-3.9521,-3.954,-3.9537,-3.9484,-3.9472,-3.9546,-3.9556,-3.9568,-3.9782,-3.9576,-3.9584,-3.9589,-4.0032,-4.004,-4.0048,0,0,0,0,0,0,-3.9389,-3.9409,-3.9566,-3.9485,-3.9503,-3.9481,-3.9533,-3.9525,-3.9554,-3.9544,-3.9538,-3.9518,-3.9541,-3.9556,-3.9684,-3.9782,-3.9588,-3.9596,-4.0024,-4.0034,-4.0044,-4.0211,0,0,0,0,0,0,-3.9383,-3.9409,-3.9477,-3.9488,-3.9507,-3.9681,-3.9539,-3.9531,-3.9569,-3.9554,-3.9574,-3.9571,-3.9538,-3.9672,-3.9693,-3.979,-3.9602,-4.0015,-4.0028,-4.0041,-4.0196,-4.0226,-4.0251,0,0,0,0,0,-3.9375,-3.9522,-3.9481,-3.9502,-3.9592,-3.9687,-3.9698,-3.9655,-3.9577,-3.9646,-3.9639,-3.9571,-3.9768,-3.9686,-3.9708,-3.981,-4.0008,-4.0025,-4.004,-4.0184,-4.022,-4.025,0,0,0,0,0,0,-3.9525,-3.9523,-3.9477,-3.9632,-3.966,-3.9664,-3.975,-3.9695,-3.9747,-3.9731,-3.9676,-3.9682,-3.9821,-3.9828,-3.9737,-3.9986,-3.9875,-3.9896,-3.9977,-4.0011,-4.0037,-4.0034,-3.9609,0,0,0,0,0,-3.9576,-3.9652,-3.9646,-3.9783,-3.9799,-3.9773,-3.9812,-3.9776,-3.9804,-3.9816,-3.9819,-3.985,-3.9918,-3.9964,-4.0027,-4.0196,-4.0199,-4.0277,-4.0304,-4.0326,-4.0345,-4.0436,-4.047,-4.0099,-4.0099,-4.0099,0,0,-3.9682,-3.969,-3.9742,-3.9813,-3.9831,-3.9912,-3.9784,-3.9875,-3.9934,-3.983,-3.9951,-3.9955,-3.9985,-4.0135,-4.02,-4.0145,-4.0448,-4.0346,-4.0364,-4.0371,-4.0455,-4.049,-4.0522,-4.011,-4.0108,-4.0106,0,0,-3.9917,-3.993,-4.0046,-4.0066,-4.0094,-4.0075,-4.0103,-4.0115,-4.0113,-4.0233,-4.0157,-4.0227,-4.0346,-4.0371,-4.0399,-4.0642,-4.0582,-4.0664,-4.0806,-4.0895,-4.0924,-4.095,-4.1037,-4.1069,-4.0683,-4.0683,-4.0684,0,-4.0046,-4.0163,-4.0112,-4.0209,-4.0242,-4.015,-4.0267,-4.0289,-4.0338,-4.0364,-4.03,-4.0447,-4.0461,-4.0615,-4.0674,-4.07,-4.0731,-4.0662,-4.0924,-4.0949,-4.0972,-4.1055,-4.1088,-4.0693,-4.0692,-4.0691,-4.069,0,-4.0321,-4.0403,-4.0493,-4.0541,-4.0585,-4.0691,-4.0657,-4.0707,-4.0667,-4.0655,-4.0779,-4.0792,-4.0856,-4.0889,-4.0852,-4.1039,-4.1003,-4.0932,-4.0819,-4.1018,-4.1095,-4.1127,-4.0707,-4.0704,-4.0701,-4.0698,0,0,-4.0654,-4.067,-4.0704,-4.0724,-4.0748,-4.0812,-4.0913,-4.0974,-4.1019,-4.1055,-4.114,-4.1242,-4.1176,-4.1209,-4.1173,-4.1251,-4.1443,-4.117,-4.117,-4.1221,-4.165,-4.1704,-4.1742,-4.1402,-4.1408,-4.1412,-4.1648,0,-4.0886,-4.1061,-4.1017,-4.1191,-4.1267,-4.1179,-4.1268,-4.1293,-4.1284,-4.1348,-4.1338,-4.1412,-4.1319,-4.1338,-4.1411,-4.1404,-4.1529,-4.1386,-4.1482,-4.1486,-4.1478,-4.1782,-4.1839,-4.2061,-4.1678,-4.1683,-4.1686,0,-4.1182,-4.1228,-4.1409,-4.1419,-4.145,-4.153,-4.1582,-4.1644,-4.167,-4.1658,-4.1694,-4.1642,-4.1744,-4.1629,-4.1768,-4.1672,-4.1708,-4.1711,-4.1718,-4.1727,-4.1599,-4.18,-4.213,-4.2165,-4.1733,-4.1729,-4.1726,0,-4.1408,-4.1515,-4.1637,-4.1656,-4.1672,-4.1731,-4.174,-4.1759,-4.1799,-4.1844,-4.1869,-4.1927,-4.1959,-4.2004,-4.197,-4.1889,-4.2116,-4.1997,-4.2109,-4.2111,-4.2162,-4.216,-4.2505,-4.2184,-4.2183,-4.2183,-4.2182,0,-4.1673,-4.1788,-4.1738,-4.1814,-4.1939,-4.1888,-4.2014,-4.2013,-4.2031,-4.2105,-4.2033,-4.2104,-4.2053,-4.2121,-4.2094,-4.2214,-4.2229,-4.2223,-4.2215,-4.223,-4.2231,-4.2254,-4.2239,-4.2191,-4.2189,-4.2188,-4.2186,0,-4.1948,-4.1919,-4.2046,-4.205,-4.2053,-4.2146,-4.2149,-4.2219,-4.2203,-4.2298,-4.2318,-4.2295,-4.237,-4.2339,-4.242,-4.2402,-4.2556,-4.2526,-4.2547,-4.254,-4.2654,-4.2644,-4.3027,-4.3075,-4.2722,-4.2726,-4.2728,0,-4.212,-4.2206,-4.2218,-4.2262,-4.2276,-4.2347,-4.2386,-4.2339,-4.2383,-4.2418,-4.2485,-4.2553,-4.2606,-4.273,-4.2721,-4.2782,-4.2755,-4.2885,-4.2764,-4.2776,-4.2758,-4.2754,-4.2763,-4.291,-4.2914,-4.2917,-4.292,0,-4.2429,-4.241,-4.2469,-4.2523,-4.2571,-4.2612,-4.2646,-4.2686,-4.264,-4.2694,-4.2769,-4.281,-4.289,-4.296,-4.3014,-4.3024,-4.2966,-4.2958,-4.2987,-4.3005,-4.3013,-4.3011,-4.2614,-4.295,-4.2947,-4.2944,-4.2943,-4.2942,-4.2658,-4.273,-4.275,-4.2817,-4.2838,-4.2871,-4.2937,-4.293,-4.2991,-4.3053,-4.3021,-4.3109,-4.3132,-4.3198,-4.3216,-4.3285,-4.3234,-4.3277,-4.3288,-4.3299,-4.3315,-4.3001,-4.3294,-4.3293,-4.3293,-4.3292,-4.3291,0,-4.2964,-4.2972,-4.3035,-4.3084,-4.3138,-4.3075,-4.311,-4.3159,-4.3237,-4.3263,-4.3316,-4.3403,-4.3469,-4.3465,-4.3527,-4.3583,-4.3557,-4.3601,-4.3597,-4.36,-4.3356,-4.3325,-4.362,-4.362,-4.362,-4.362,-4.362,-4.362,-4.313,-4.3248,-4.3232,-4.336,-4.3367,-4.3451,-4.3477,-4.3507,-4.3528,-4.3627,-4.3682,-4.3678,-4.3692,-4.3754,-4.3813,-4.381,-4.3836,-4.389,-4.3878,-4.365,-4.3617,-4.3586,-4.3557,-4.3896,-4.3896,-4.4116,-4.4118,-4.412]},{"header":{"parameterUnit":"m.s-1","parameterCategory":1,"la1":30.2991,"la2":30.254,"lo1":-89.0895,"lo2":-89.0444,"dy":0.0017,"dx":0.0017,"nx":28,"ny":28,"refTime":"2025-03-03T09:00:00:Z","depth":0,"parameterNumber":3,"parameterNumberName":"V-component_of_WINDS"},"data":[0,0,0,0,0,0,0,0,0,0,0,0,0,0,0,0,0,0,0,0,0,0,0,0,0,0,0,0,0,0,0,0,0,0,0,0,0,0,0,0,0,0,0,0,0,0,0,0,0,0,0,0,0,0,0,0,0,0,-1.726,-1.726,0,-1.7257,-1.7257,-1.7257,-1.7254,-1.7254,-1.7254,-1.7254,-1.725,-1.725,-1.725,0,0,0,0,0,0,0,0,0,0,0,0,0,-1.726,-1.726,-1.726,-1.726,-1.726,-1.7257,-1.7257,-1.7257,-1.7254,-1.7254,-1.7254,-1.7254,-1.725,-1.725,-1.725,0,0,0,0,0,0,0,0,0,0,0,0,0,-1.7259,-1.726,-1.726,-1.7259,-1.7258,-1.7257,-1.7257,-1.7257,-1.7254,-1.7254,-1.7254,-1.7254,-1.725,-1.725,-1.725,-1.725,0,0,-1.7249,-1.7249,0,0,0,0,0,0,0,0,-1.7259,-1.7259,-1.7259,-1.7259,-1.7258,-1.7256,-1.7256,-1.7255,-1.7254,-1.7256,-1.7254,-1.7254,-1.7252,-1.7252,-1.7251,-1.725,-1.725,-1.7249,-1.7249,-1.7249,-1.7249,0,0,0,0,0,0,0,-1.7259,-1.7259,-1.7259,-1.7259,-1.7259,-1.7257,-1.7257,-1.7256,-1.7254,-1.7256,-1.7255,-1.7255,-1.7252,-1.7251,-1.7251,-1.725,-1.7249,-1.7249,-1.7249,-1.7249,-1.7246,-1.7246,0,0,0,0,0,0,-1.726,-1.7259,-1.7259,-1.7259,-1.7259,-1.7257,-1.7257,-1.7257,-1.7254,-1.7254,-1.7255,-1.7255,-1.7252,-1.7251,-1.7251,-1.7249,-1.7249,-1.7249,-1.7249,-1.7246,-1.7246,-1.7246,0,0,0,0,0,0,-1.726,-1.726,-1.7259,-1.7259,-1.7259,-1.7257,-1.7257,-1.7257,-1.7257,-1.7254,-1.7253,-1.7255,-1.7251,-1.7251,-1.725,-1.7249,-1.7249,-1.7249,-1.7246,-1.7246,-1.7246,-1.7248,0,0,0,0,0,0,-1.726,-1.726,-1.7261,-1.7259,-1.7259,-1.7259,-1.7257,-1.7257,-1.7256,-1.7256,-1.7254,-1.7253,-1.7251,-1.725,-1.725,-1.7249,-1.7249,-1.7246,-1.7246,-1.7246,-1.7248,-1.7248,-1.7248,0,0,0,0,0,-1.726,-1.7262,-1.7261,-1.7261,-1.726,-1.7259,-1.7259,-1.7257,-1.7257,-1.7257,-1.7255,-1.7253,-1.7249,-1.725,-1.725,-1.7249,-1.7246,-1.7246,-1.7246,-1.7248,-1.7248,-1.7248,0,0,0,0,0,0,-1.7264,-1.7262,-1.7261,-1.7263,-1.7261,-1.7259,-1.726,-1.7258,-1.7257,-1.7256,-1.7254,-1.7253,-1.7251,-1.725,-1.7251,-1.7248,-1.7247,-1.7247,-1.7249,-1.7249,-1.7249,-1.7249,-1.7249,0,0,0,0,0,-1.7265,-1.7266,-1.7263,-1.7265,-1.7264,-1.7262,-1.7261,-1.726,-1.7258,-1.7257,-1.7255,-1.7253,-1.7251,-1.725,-1.7248,-1.7247,-1.7246,-1.7247,-1.7247,-1.7247,-1.7246,-1.7244,-1.7243,-1.7245,-1.7245,-1.7245,0,0,-1.7268,-1.7266,-1.7267,-1.7266,-1.7264,-1.7263,-1.7261,-1.7261,-1.726,-1.7257,-1.7256,-1.7254,-1.7251,-1.7249,-1.7248,-1.7248,-1.7245,-1.7247,-1.7247,-1.7246,-1.7244,-1.7243,-1.7243,-1.7245,-1.7245,-1.7245,0,0,-1.7271,-1.7271,-1.7271,-1.727,-1.7268,-1.7266,-1.7266,-1.7263,-1.7262,-1.726,-1.7257,-1.7255,-1.7253,-1.725,-1.7248,-1.7248,-1.7246,-1.7248,-1.7248,-1.7245,-1.7245,-1.7245,-1.7243,-1.7243,-1.7247,-1.7247,-1.7247,0,-1.7275,-1.7274,-1.7272,-1.7271,-1.7269,-1.7267,-1.7266,-1.7264,-1.7262,-1.726,-1.726,-1.7255,-1.7253,-1.7249,-1.7249,-1.7248,-1.7247,-1.7248,-1.7245,-1.7245,-1.7245,-1.7243,-1.7243,-1.7247,-1.7247,-1.7247,-1.7247,0,-1.7277,-1.7276,-1.7276,-1.7273,-1.7272,-1.7271,-1.7268,-1.7266,-1.7264,-1.7262,-1.7259,-1.7256,-1.7253,-1.7252,-1.725,-1.7247,-1.7247,-1.7246,-1.7245,-1.7245,-1.7243,-1.7243,-1.7248,-1.7248,-1.7248,-1.7248,0,0,-1.7284,-1.7279,-1.7279,-1.7276,-1.7272,-1.7271,-1.7269,-1.7266,-1.7264,-1.7262,-1.7259,-1.7255,-1.7254,-1.7252,-1.725,-1.7247,-1.7245,-1.7246,-1.7246,-1.7245,-1.724,-1.724,-1.7239,-1.7244,-1.7243,-1.7243,-1.7239,0,-1.7286,-1.7284,-1.7281,-1.7278,-1.7276,-1.7272,-1.727,-1.7267,-1.7264,-1.7261,-1.7258,-1.7255,-1.7254,-1.7252,-1.725,-1.7246,-1.7244,-1.7246,-1.724,-1.724,-1.724,-1.7239,-1.7239,-1.7236,-1.7239,-1.7239,-1.7239,0,-1.7289,-1.7286,-1.7284,-1.7278,-1.7277,-1.7275,-1.7271,-1.7268,-1.7264,-1.7261,-1.7258,-1.7255,-1.7251,-1.7251,-1.7244,-1.7246,-1.7243,-1.7241,-1.724,-1.7239,-1.7239,-1.7237,-1.7235,-1.7234,-1.7238,-1.7238,-1.7238,0,-1.7293,-1.7288,-1.7286,-1.7284,-1.7278,-1.7276,-1.7273,-1.7269,-1.7266,-1.7262,-1.7259,-1.7255,-1.7252,-1.7248,-1.7243,-1.7243,-1.7236,-1.7236,-1.7233,-1.7233,-1.7232,-1.7232,-1.7229,-1.7231,-1.7231,-1.7231,-1.7231,0,-1.7295,-1.7294,-1.7287,-1.7285,-1.7282,-1.7278,-1.7275,-1.7272,-1.7267,-1.7264,-1.726,-1.7257,-1.7251,-1.7246,-1.7243,-1.7237,-1.7236,-1.7233,-1.7232,-1.7233,-1.7233,-1.7231,-1.723,-1.7231,-1.7231,-1.7231,-1.7231,0,-1.73,-1.7296,-1.7292,-1.7286,-1.7284,-1.7282,-1.7276,-1.7273,-1.7269,-1.7265,-1.7263,-1.7257,-1.7251,-1.7246,-1.7239,-1.7236,-1.723,-1.7229,-1.7231,-1.7231,-1.7228,-1.7228,-1.7222,-1.7221,-1.7225,-1.7225,-1.7225,0,-1.7301,-1.73,-1.7293,-1.729,-1.7287,-1.7283,-1.728,-1.7275,-1.7272,-1.7265,-1.7262,-1.7256,-1.7251,-1.7242,-1.7236,-1.7229,-1.7228,-1.7226,-1.7227,-1.7227,-1.7226,-1.7226,-1.7225,-1.7226,-1.7226,-1.7226,-1.7226,0,-1.7304,-1.7301,-1.7297,-1.7292,-1.7288,-1.7283,-1.7279,-1.7277,-1.727,-1.7266,-1.726,-1.7256,-1.7248,-1.7241,-1.7233,-1.7229,-1.7226,-1.7226,-1.7225,-1.7226,-1.7227,-1.7225,-1.723,-1.7226,-1.7226,-1.7226,-1.7226,-1.7226,-1.7306,-1.7304,-1.7298,-1.7293,-1.7288,-1.7283,-1.728,-1.7275,-1.727,-1.7263,-1.726,-1.7253,-1.7246,-1.7235,-1.7231,-1.7225,-1.7224,-1.7223,-1.7223,-1.7222,-1.7222,-1.7228,-1.7224,-1.7224,-1.7224,-1.7224,-1.7224,0,-1.7307,-1.7303,-1.7298,-1.7291,-1.7287,-1.7284,-1.7278,-1.7274,-1.7268,-1.7262,-1.7257,-1.7248,-1.7241,-1.7234,-1.7226,-1.7223,-1.7221,-1.7221,-1.7221,-1.7219,-1.7223,-1.7225,-1.7222,-1.7222,-1.7222,-1.7222,-1.7222,-1.7222,-1.7308,-1.7303,-1.7299,-1.7291,-1.7286,-1.728,-1.7276,-1.7271,-1.7266,-1.7257,-1.7251,-1.7246,-1.7239,-1.723,-1.7223,-1.7221,-1.7218,-1.7218,-1.7215,-1.7219,-1.7219,-1.7219,-1.7221,-1.7217,-1.7217,-1.7212,-1.7212,-1.7211]}]]